Temperature
23 20 21 21 21 23 23 23 23 23 24 23 22 22 22 22 22 21 21 21 21 21 21 22 22 23 23 22 22 22 22 21 21 21 20 20 19 19 19 18 18 17 17 17
20 21 22 22 22 22 22 23 23 23 23 23 22 22 21 21 21 21 20 20 20 21 21 22 22 23 23 23 23 22 22 21 21 21 20 20 19 19 18 17 17 17 17 17
22 22 23 24 24 23 23 23 23 23 22 21 22 21 21 20 20 20 20 20 20 21 22 22 22 23 23 23 23 22 22 21 21 20 20 19 19 18 17 17 17 16 16 16
22 22 24 24 24 24 23 24 23 23 21 20 21 19 20 19 19 19 19 19 21 21 22 22 23 23 23 23 22 22 21 21 20 20 19 19 18 17 17 16 16 16 16 16
23 24 24 25 25 25 24 22 22 21 20 19 19 19 18 18 19 19 19 20 21 21 22 22 23 23 23 23 22 22 21 21 20 20 19 18 18 17 16 16 16 16 16 16
23 24 24 25 24 24 23 20 19 16 16 18 19 19 18 18 19 19 19 21 21 22 22 22 23 22 22 22 22 21 21 21 20 20 19 18 17 17 16 16 15 15 15 15
22 23 23 24 24 23 21 19 17 18 16 18 18 18 17 19 19 19 19 21 22 22 22 22 22 22 22 22 22 21 21 21 20 20 19 18 17 16 16 15 15 15 15 15
21 21 23 24 24 22 21 19 18 18 17 17 17 18 18 19 19 19 19 19 19 20 20 20 21 21 21 21 21 21 21 21 20 20 19 18 17 16 15 15 15 14 14 14
21 21 22 23 23 22 20 19 18 16 17 17 17 18 18 17 17 17 17 16 16 17 18 19 19 20 21 21 21 21 21 20 20 19 18 18 17 16 15 15 14 14 14 14
21 21 22 21 22 22 20 17 15 16 17 17 17 17 15 14 14 14 13 13 13 14 16 17 18 18 19 19 19 19 19 19 19 18 18 17 16 16 15 15 14 14 14 13
21 20 20 20 21 21 20 19 15 14 15 16 16 15 15 13 12 12 12 12 12 12 13 15 15 16 17 18 18 18 18 18 18 17 17 16 16 15 15 14 14 14 13 13
18 17 18 19 19 19 20 19 16 17 16 14 14 14 13 12 12 12 11 11 12 12 13 13 14 15 16 16 16 16 16 16 16 16 16 16 16 15 15 14 14 13 13 13
17 17 18 18 18 19 20 19 17 15 14 13 14 14 12 12 11 11 11 11 11 11 12 13 13 13 14 14 14 15 15 15 15 15 16 16 16 15 15 14 14 13 13 12
17 16 17 19 18 19 19 18 17 14 14 14 14 14 11 10 10 10 10 10 10 11 11 11 11 11 12 12 12 12 13 13 13 14 14 15 15 15 15 14 14 13 12 12
17 18 17 17 18 19 18 17 16 15 14 14 13 12 10 10 10 10 10 10 10 10 10 10 10 10 10 10 11 11 11 11 12 12 13 14 14 14 14 14 13 13 12 12
16 18 18 18 19 18 17 15 14 13 13 13 12 11 10 10 10 10 9 9 9 9 9 9 9 9 9 10 10 10 10 10 10 11 11 12 13 13 14 13 13 13 12 12
15 16 17 16 17 18 15 13 13 12 11 11 11 10 10 10 9 9 8 8 8 9 9 9 9 9 9 9 9 9 9 10 10 10 10 11 11 12 12 12 13 12 12 12
14 14 13 14 17 17 12 12 12 11 10 10 10 10 9 9 8 9 9 9 9 9 9 9 9 9 9 9 9 9 9 9 9 9 9 10 10 10 11 11 12 12 12 12
13 14 13 13 15 14 13 12 12 11 11 10 9 9 9 9 8 9 10 10 9 9 9 9 9 9 9 9 9 9 9 9 9 9 9 9 9 9 10 10 11 11 11 11
12 12 13 14 16 15 11 12 11 11 11 9 9 9 9 8 6 7 9 9 9 9 9 9 9 9 9 9 9 9 9 9 9 9 9 9 8 8 9 9 10 10 11 11
13 12 12 13 14 12 10 10 11 11 10 10 10 9 8 7 7 8 8 8 9 9 9 9 9 9 9 9 9 8 9 9 9 9 8 8 8 8 8 9 9 9 10 11
12 12 12 12 13 11 10 10 10 10 11 10 9 9 8 8 8 8 8 8 8 8 8 8 8 8 8 8 8 8 8 8 9 8 8 8 8 8 7 8 8 9 9 10
10 10 10 10 10 10 10 10 11 10 10 9 9 9 8 8 7 8 8 8 8 8 8 8 7 7 7 7 7 7 7 8 8 8 8 8 8 7 7 7 8 8 9 10
9 10 9 9 9 10 11 11 11 10 9 9 9 8 8 8 7 7 7 7 7 7 7 7 7 7 7 7 6 6 7 7 7 7 8 8 7 7 7 7 7 7 8 9
8 9 9 9 9 10 11 11 10 9 9 9 9 8 8 8 7 7 7 7 7 7 6 6 6 6 6 6 6 6 6 6 6 7 7 7 7 7 7 7 7 7 8 9
8 8 8 8 10 9 9 10 9 9 8 8 8 8 8 7 7 7 6 6 6 6 6 5 5 5 5 5 5 5 5 5 5 6 6 7 7 7 6 6 7 7 8 9
Wind_Speed
4 4 2 6 6 4 1 1 2 4 4 4 4 2 3 2 2 4 6 6 6 6 4 4 6 7 7 6 7 7 7 6 4 2 2 2 3 3 3 4 5 6 6 7
5 4 6 4 4 3 2 2 1 4 4 3 2 3 4 3 3 5 7 7 6 5 4 4 5 6 7 8 8 7 7 5 4 2 2 1 1 2 3 3 5 7 7 7
3 6 4 1 2 4 2 4 3 3 4 6 3 6 5 4 5 3 3 5 6 8 9 8 8 8 7 8 8 7 6 5 3 3 2 1 2 2 3 3 4 5 7 8
3 6 2 1 0 4 2 4 3 1 2 4 3 3 6 5 5 2 3 6 8 8 8 8 9 9 9 9 5 5 5 4 3 4 3 2 2 3 3 3 5 7 7 7
5 3 1 1 2 3 4 3 3 2 2 2 4 1 8 5 4 3 5 8 9 9 10 10 11 10 8 6 4 4 5 4 4 4 4 4 3 3 3 4 6 6 6 7
5 4 2 3 1 2 4 6 6 6 5 2 2 1 6 5 6 5 6 8 10 9 9 9 9 7 6 3 3 5 6 5 5 5 5 5 5 4 4 5 5 6 6 6
7 8 5 1 2 4 7 7 6 7 6 4 4 2 8 7 6 6 8 8 7 6 6 8 8 8 7 6 5 6 7 6 6 5 6 5 5 4 5 5 5 6 6 6
2 7 5 3 2 4 2 8 6 3 4 6 4 4 6 5 6 5 4 5 7 8 7 8 8 8 7 7 7 7 8 7 6 6 6 5 5 4 4 5 5 6 6 7
5 6 6 3 3 4 5 3 6 6 3 2 6 7 8 13 16 14 12 12 12 11 11 10 10 9 8 7 5 5 6 6 6 7 6 6 6 5 6 6 5 5 6 7
8 5 6 7 5 4 3 8 6 5 4 4 6 4 6 14 15 14 14 14 13 13 14 14 13 13 12 10 8 6 4 5 6 6 6 6 6 6 6 5 6 6 6 7
4 4 6 7 4 4 3 4 5 4 4 5 4 3 3 6 8 9 11 11 11 13 13 13 13 12 12 13 12 11 9 8 7 7 7 8 8 7 6 6 6 6 6 7
4 5 2 6 6 3 1 4 6 2 3 4 4 3 5 5 6 8 9 10 10 10 10 11 12 13 15 15 13 12 10 10 10 9 9 10 9 8 8 8 7 5 6 6
7 5 3 8 7 4 2 2 4 4 3 5 5 4 4 6 7 8 8 9 9 10 11 11 12 13 13 13 13 12 12 11 11 10 10 11 10 10 10 9 7 5 5 5
6 5 7 7 9 5 3 3 1 5 3 5 6 4 6 9 10 10 9 9 9 9 10 11 11 11 11 11 11 12 12 11 12 12 11 12 12 12 11 9 7 6 5 4
5 4 7 7 5 1 1 5 6 2 1 4 0 4 4 7 9 10 10 10 11 12 13 13 13 12 12 12 11 11 12 12 12 13 13 13 13 11 10 9 8 7 5 4
3 2 2 4 1 2 4 8 6 6 5 4 4 2 3 7 8 10 12 12 12 13 14 14 14 14 14 14 14 13 12 12 12 12 13 13 13 11 10 10 9 7 6 4
2 3 2 4 4 2 4 7 4 3 3 3 2 3 8 10 13 14 15 14 12 12 13 14 14 14 14 14 14 13 13 12 12 12 12 12 13 11 10 9 9 9 8 6
4 4 2 2 3 1 2 4 5 3 2 2 2 7 9 11 12 13 14 12 11 11 13 14 15 14 14 15 14 13 13 12 12 12 11 11 12 12 10 8 10 10 8 8
3 5 4 2 1 3 3 3 5 4 3 2 5 10 11 10 9 8 9 8 10 12 14 15 15 15 15 16 15 13 13 13 12 12 11 11 10 12 10 9 10 10 9 9
7 6 5 3 2 1 1 7 9 5 4 4 6 11 12 10 10 9 10 12 15 17 16 15 15 14 15 16 13 12 14 14 14 13 12 10 10 10 11 10 10 9 9 10
7 6 5 3 1 2 3 9 7 2 6 8 9 11 12 10 12 14 15 17 19 19 19 18 16 15 14 15 12 13 14 15 16 13 12 11 10 9 10 9 9 10 11 11
3 3 4 3 3 2 4 5 2 6 8 9 11 12 14 16 18 19 17 17 17 18 18 18 16 16 14 13 13 15 16 17 14 12 12 12 10 10 10 9 10 9 12 13
3 1 0 2 1 4 4 6 8 8 10 12 10 15 16 18 20 19 19 18 18 19 19 16 16 17 14 13 13 16 17 16 14 13 13 12 11 9 8 8 10 9 10 12
3 2 3 1 3 5 7 8 8 9 11 12 14 17 17 19 21 21 20 19 17 18 18 17 16 17 16 14 14 15 16 14 13 14 13 11 10 10 9 7 7 7 8 12
2 2 2 2 5 9 8 8 10 12 13 15 17 17 17 20 22 22 21 19 19 18 16 15 16 17 18 15 15 15 14 13 13 13 13 11 10 9 9 8 7 8 9 12
1 2 1 4 7 6 11 11 13 14 14 17 19 18 17 18 22 23 21 19 18 18 17 17 18 18 18 17 16 15 14 13 12 12 11 9 8 8 7 8 9 11 13 15
Wind_Direction
25 46 278 241 204 211 241 221 260 289 331 42 51 12 332 324 154 177 174 160 146 136 131 138 148 151 150 159 166 174 181 190 169 151 174 220 258 274 287 292 298 306 302 297
15 310 257 240 200 191 189 151 267 296 351 34 357 331 313 315 253 227 197 169 154 146 154 176 183 179 179 184 189 191 191 186 179 163 161 185 240 275 282 300 311 310 311 307
234 265 299 9 107 124 147 169 209 266 345 20 12 338 330 318 337 338 165 161 177 182 188 199 205 210 207 208 205 197 191 184 174 153 109 59 12 337 322 315 311 311 313 309
263 275 313 37 80 140 218 236 222 222 41 322 20 299 301 324 340 356 169 177 198 203 206 213 215 220 222 223 212 198 185 171 161 151 155 174 228 268 269 287 292 303 304 307
302 308 331 281 267 198 209 64 69 66 129 44 22 107 292 333 322 270 222 210 215 216 215 221 225 227 231 225 204 193 177 175 174 169 174 187 217 238 273 289 294 301 304 305
271 304 282 258 331 51 101 66 49 48 66 65 312 211 285 269 241 248 242 235 232 232 234 240 247 251 255 236 199 186 185 193 189 184 189 199 219 247 280 296 303 308 307 304
334 332 330 301 17 15 68 70 19 1 8 268 282 225 252 262 256 241 243 250 258 263 263 268 274 271 266 248 222 202 196 208 204 203 211 214 219 233 256 276 289 302 307 309
321 307 302 323 226 225 159 135 155 215 239 280 322 240 258 316 329 320 319 346 358 351 344 331 321 306 289 269 241 217 212 219 215 218 226 224 223 228 244 253 265 281 290 297
192 262 296 332 314 168 146 163 161 141 175 262 286 292 320 359 4 9 18 27 22 15 12 5 359 353 339 322 295 261 248 247 238 233 236 237 233 236 248 257 262 275 284 297
171 236 296 320 7 29 131 138 99 121 165 251 289 319 332 345 352 9 26 30 25 22 23 20 19 16 11 6 1 358 331 294 284 271 260 256 246 244 250 259 269 280 292 300
137 176 302 348 5 334 32 76 92 110 156 174 251 272 28 5 4 22 26 24 19 20 19 17 14 13 16 18 16 8 355 335 314 291 275 267 261 255 253 256 265 278 291 304
122 125 287 294 282 280 230 138 139 126 262 193 208 235 44 33 18 21 19 15 12 13 14 13 12 12 13 11 8 4 357 346 330 312 287 268 260 253 250 253 259 269 286 301
143 114 29 343 336 349 51 133 149 135 144 180 193 212 56 27 19 12 6 0 360 4 7 8 8 7 4 359 356 353 349 340 331 323 306 284 266 252 247 245 246 255 273 295
122 131 171 213 231 239 291 323 126 142 188 229 220 164 20 3 357 349 346 345 350 358 0 360 358 353 350 346 342 341 339 335 333 327 317 299 278 259 247 238 232 236 250 275
111 188 225 240 249 192 8 5 25 76 250 224 4 98 8 339 331 327 328 332 346 353 353 351 346 342 339 336 332 332 331 330 330 328 325 313 295 272 250 235 225 223 228 240
70 192 222 292 293 158 77 34 45 44 26 54 91 85 315 313 318 329 330 328 334 340 338 335 332 330 328 325 324 321 319 321 323 324 323 322 313 289 258 236 221 213 212 210
50 115 108 286 314 91 49 11 39 71 45 31 21 320 317 324 328 323 312 307 308 318 319 317 314 310 308 307 306 303 302 308 312 313 317 324 323 309 278 245 220 212 204 195
116 101 116 304 1 287 91 52 69 102 96 51 333 305 305 299 299 292 286 278 280 292 301 301 299 297 295 295 293 290 292 294 298 302 308 316 323 319 304 264 231 216 199 192
99 122 91 65 14 119 115 21 4 321 253 203 305 304 303 301 300 291 289 267 269 284 290 290 287 287 287 287 286 286 287 287 289 291 295 304 314 318 312 291 253 222 201 192
44 65 85 56 333 302 59 323 320 282 253 223 277 296 304 318 311 295 282 285 292 296 296 292 290 287 283 283 280 278 280 281 280 280 283 288 295 306 306 299 278 235 208 196
8 19 51 39 325 74 298 309 332 354 293 296 296 293 295 286 276 282 286 288 289 291 291 292 291 289 284 284 281 277 277 274 272 273 276 279 282 289 295 300 291 244 214 193
28 19 19 14 9 348 315 353 15 269 281 293 294 290 289 288 288 290 291 288 287 288 288 287 286 284 283 282 280 280 278 274 273 273 274 275 276 285 300 305 302 263 216 193
57 28 30 78 158 248 251 246 258 271 281 284 283 286 291 292 293 293 292 290 289 286 285 282 278 278 276 272 269 273 275 275 274 274 272 272 274 274 278 292 301 280 223 195
14 13 101 87 261 269 273 270 273 277 276 282 286 290 292 292 293 293 292 290 287 284 282 280 277 278 278 272 269 268 272 273 269 268 268 267 269 274 272 280 289 280 239 199
345 32 57 304 286 300 294 283 286 293 294 294 295 294 292 291 293 293 293 292 290 289 285 281 279 278 276 272 268 268 269 268 267 266 265 264 263 266 271 276 278 275 257 215
274 143 146 260 261 263 278 285 293 296 293 294 297 298 292 289 292 294 294 293 293 292 290 287 282 280 278 273 268 265 262 260 260 265 264 260 258 261 264 275 286 272 255 222
Height
1503 1508 1511 1508 1506 1506 1508 1511 1512 1505 1498 1500 1501 1500 1497 1494 1494 1495 1495 1496 1497 1499 1502 1504 1505 1507 1509 1510 1511 1512 1513 1513 1514 1514 1514 1514 1513 1512 1510 1507 1505 1502 1499 1497
1508 1509 1502 1500 1501 1504 1507 1511 1510 1504 1499 1500 1502 1502 1498 1496 1495 1494 1494 1496 1498 1500 1503 1504 1506 1507 1508 1509 1509 1510 1510 1511 1512 1512 1512 1511 1510 1508 1505 1502 1500 1497 1494 1491
1509 1504 1497 1498 1501 1505 1506 1508 1507 1506 1503 1503 1504 1508 1503 1498 1496 1495 1495 1497 1499 1500 1502 1503 1504 1505 1506 1507 1507 1508 1508 1509 1510 1510 1509 1508 1506 1504 1501 1498 1495 1492 1488 1485
1506 1500 1498 1499 1501 1502 1509 1501 1502 1504 1511 1518 1513 1526 1509 1503 1499 1497 1496 1497 1498 1499 1500 1501 1502 1503 1504 1505 1505 1506 1507 1507 1507 1507 1506 1504 1502 1499 1496 1493 1490 1487 1483 1480
1506 1500 1499 1501 1499 1497 1501 1499 1503 1508 1512 1521 1519 1526 1518 1505 1502 1498 1496 1496 1497 1498 1499 1500 1500 1501 1502 1503 1503 1504 1504 1504 1504 1503 1502 1500 1498 1495 1492 1489 1485 1482 1479 1476
1502 1498 1498 1497 1495 1496 1498 1504 1511 1518 1524 1532 1523 1526 1524 1510 1501 1497 1495 1495 1495 1496 1497 1498 1499 1499 1500 1500 1501 1501 1501 1501 1501 1500 1499 1497 1494 1491 1488 1485 1481 1478 1474 1471
1509 1502 1497 1496 1498 1498 1503 1518 1537 1538 1544 1538 1524 1526 1523 1501 1497 1496 1494 1494 1494 1495 1496 1497 1497 1497 1497 1498 1498 1498 1498 1498 1498 1496 1495 1493 1490 1487 1483 1480 1477 1473 1469 1466
1520 1520 1501 1496 1498 1503 1504 1516 1537 1546 1548 1539 1526 1525 1512 1500 1497 1496 1496 1496 1496 1496 1496 1496 1495 1495 1494 1494 1495 1495 1494 1494 1494 1493 1491 1489 1486 1483 1480 1477 1473 1469 1465 1462
1520 1518 1500 1497 1496 1498 1507 1514 1516 1532 1536 1542 1533 1520 1507 1501 1500 1500 1500 1499 1498 1498 1496 1494 1493 1492 1491 1490 1491 1491 1491 1491 1491 1490 1488 1486 1483 1480 1476 1473 1470 1466 1462 1458
1508 1515 1505 1500 1497 1498 1502 1511 1523 1533 1542 1545 1534 1528 1531 1520 1515 1510 1506 1504 1502 1499 1496 1494 1492 1490 1489 1488 1487 1487 1487 1487 1487 1486 1484 1482 1479 1476 1473 1470 1467 1463 1460 1456
1504 1516 1512 1507 1506 1507 1507 1512 1523 1532 1534 1542 1544 1538 1527 1527 1522 1518 1514 1510 1506 1502 1498 1496 1493 1491 1489 1487 1485 1484 1484 1483 1482 1481 1479 1477 1475 1473 1470 1467 1464 1460 1457 1453
1507 1517 1523 1514 1506 1504 1504 1508 1519 1528 1530 1536 1540 1540 1527 1526 1523 1520 1517 1513 1509 1505 1501 1498 1495 1492 1489 1487 1485 1483 1481 1479 1477 1475 1473 1471 1469 1467 1465 1463 1460 1457 1453 1450
1507 1517 1528 1526 1519 1508 1507 1508 1512 1521 1528 1536 1539 1535 1526 1525 1523 1520 1517 1514 1510 1506 1502 1499 1496 1493 1490 1487 1484 1482 1479 1476 1473 1470 1467 1465 1462 1461 1459 1458 1456 1453 1450 1447
1500 1513 1522 1526 1520 1510 1509 1509 1511 1520 1528 1530 1526 1524 1527 1525 1523 1520 1517 1514 1510 1506 1502 1499 1495 1492 1489 1486 1483 1479 1476 1473 1469 1465 1461 1458 1455 1453 1453 1452 1450 1449 1447 1444
1500 1510 1510 1509 1506 1507 1510 1513 1514 1517 1520 1524 1522 1526 1529 1527 1524 1521 1517 1512 1508 1504 1501 1497 1494 1490 1487 1484 1480 1476 1472 1469 1465 1460 1456 1452 1448 1446 1445 1445 1445 1444 1442 1441
1502 1507 1508 1508 1504 1506 1514 1518 1519 1523 1523 1523 1524 1528 1528 1526 1523 1519 1515 1511 1507 1503 1500 1496 1492 1489 1485 1482 1477 1473 1469 1465 1461 1456 1451 1446 1442 1439 1438 1438 1439 1438 1438 1437
1508 1510 1515 1518 1511 1508 1524 1527 1526 1527 1528 1528 1528 1531 1526 1523 1520 1517 1512 1508 1505 1502 1498 1495 1491 1487 1483 1479 1474 1470 1465 1461 1457 1452 1447 1442 1437 1433 1431 1431 1432 1433 1433 1433
1510 1514 1521 1522 1515 1524 1536 1530 1529 1530 1531 1530 1529 1528 1525 1522 1518 1513 1509 1505 1502 1499 1495 1491 1486 1482 1478 1474 1470 1465 1461 1457 1452 1448 1443 1438 1433 1429 1426 1425 1425 1426 1428 1428
1508 1514 1523 1527 1526 1529 1532 1531 1531 1531 1529 1530 1528 1525 1521 1518 1514 1509 1506 1503 1500 1495 1490 1485 1480 1475 1471 1467 1463 1459 1454 1451 1446 1442 1437 1433 1428 1424 1421 1419 1418 1419 1421 1423
1513 1515 1524 1527 1526 1529 1538 1533 1530 1531 1528 1528 1526 1523 1519 1515 1513 1506 1502 1499 1493 1488 1483 1478 1473 1468 1463 1459 1455 1450 1446 1443 1439 1435 1431 1427 1423 1419 1415 1412 1411 1412 1414 1417
1525 1527 1530 1531 1530 1536 1540 1533 1529 1535 1533 1526 1523 1520 1516 1513 1508 1500 1495 1490 1486 1481 1476 1471 1465 1460 1455 1451 1446 1441 1437 1434 1431 1428 1424 1420 1417 1413 1409 1406 1403 1403 1405 1409
1534 1533 1534 1535 1535 1540 1537 1534 1536 1534 1527 1523 1519 1516 1510 1505 1499 1493 1487 1482 1477 1472 1467 1462 1457 1451 1447 1443 1438 1432 1427 1424 1422 1419 1416 1413 1410 1406 1402 1399 1396 1394 1395 1400
1537 1538 1537 1538 1541 1538 1535 1533 1531 1528 1524 1519 1515 1510 1504 1498 1491 1485 1479 1473 1468 1462 1457 1451 1446 1440 1435 1432 1428 1422 1418 1415 1412 1409 1407 1405 1402 1399 1396 1392 1389 1386 1387 1390
1538 1537 1538 1538 1537 1535 1532 1529 1527 1524 1520 1515 1510 1504 1498 1491 1483 1476 1470 1464 1457 1451 1446 1440 1434 1428 1423 1420 1417 1412 1408 1406 1402 1399 1397 1396 1394 1391 1388 1385 1381 1379 1379 1382
1540 1538 1539 1539 1536 1532 1528 1527 1523 1519 1514 1508 1503 1497 1491 1484 1475 1468 1460 1453 1447 1440 1434 1429 1423 1416 1411 1408 1404 1401 1398 1395 1392 1389 1388 1387 1386 1383 1381 1378 1374 1372 1372 1375
1539 1540 1540 1539 1534 1532 1526 1522 1518 1513 1507 1501 1495 1487 1482 1476 1467 1459 1451 1443 1436 1428 1422 1416 1409 1403 1398 1394 1390 1388 1386 1384 1382 1379 1378 1378 1377 1375 1373 1370 1367 1365 1365 1368